Regional Weather Roundup
Issued by NWS

Home | Current Version | Previous Version | Graphics & Text | Print | Product List | Glossary On
Versions: 1 2 3 4 5 6 7 8 9 10 11 12 13 14 15 16 17 18 19 20 21 22 23 24 25 26 27
000
ASUS45 KCYS 201310
RWRWY

WYOMING REGIONAL WEATHER ROUNDUP
NATIONAL WEATHER SERVICE CHEYENNE WY
700 AM MDT SUN APR 20 2014

NOTE:  "FAIR" INDICATES FEW OR NO CLOUDS BELOW 12,000 FEET
WITH NO SIGNIFICANT WEATHER AND/OR OBSTRUCTIONS TO VISIBILITY.

WYZ001-201400-
YELLOWSTONE NATIONAL PARK

CITY           SKY/WX    TMP DP  RH WIND       PRES   REMARKS
LK YELLOWSTONE   N/A     23  20  88 NW3       30.12R
W YELLOWSTONE  NOT AVBL

$$
WYZ002>013-054>058-071-098>099-201400-
NORTHERN WYOMING

CITY           SKY/WX    TMP DP  RH WIND       PRES   REMARKS
JACKSON        PTCLDY    28  27  93 N10       30.09R WCI  19
CODY           MOCLDY    48  27  43 SW3       29.96S
GREYBULL       MOCLDY    39  31  72 CALM      29.96R
WORLAND        MOCLDY    38  31  76 CALM      29.96R
SHERIDAN         N/A     36  32  87 NE6         N/A  WCI  31
BUFFALO        PTCLDY    53  20  27 CALM      29.95S
GILLETTE       CLEAR     37  31  78 SE3       29.93S
HULETT         FAIR      43  34  70 SW7       29.94
NEWCASTLE      FAIR      39  34  81 N3        29.97

$$
WYZ014>020-022>026-101>103-201400-
CENTRAL WYOMING

CITY           SKY/WX    TMP DP  RH WIND       PRES   REMARKS
BIG PINEY      PTCLDY    25  19  78 E3        30.14R
PINEDALE       MOSUNNY   27  25  93 N5        30.14S WCI  21
DUBOIS         FAIR      36  27  69 W8        30.07R WCI  29
LANDER         PTCLDY    45  25  45 W3        30.02R
RIVERTON       PTCLDY    42  19  39 CALM      30.03R
CASPER         CLEAR     46  33  60 SW10      30.02R
DOUGLAS        CLEAR     39  35  86 CALM      30.01R

$$
WYZ021-027>030-104>119-201400-
SOUTHERN WYOMING

CITY           SKY/WX    TMP DP  RH WIND       PRES   REMARKS
EVANSTON       PTCLDY    41  30  65 S7        30.15R
KEMMERER       MOSUNNY   34  28  80 N9        30.15R WCI  26
FORT BRIDGER   FAIR      44  30  57 W9        30.16S
ROCK SPRINGS   PTCLDY    40  28  62 CALM      30.13R
DIXON          PTSUNNY   34  32  92 CALM      30.18S
RAWLINS        PTCLDY    42  33  70 W10       30.12R
SARATOGA       FAIR      36  32  87 S10       30.15R WCI  28
LARAMIE        CLEAR     35  31  85 S7        30.12R WCI  29
CHEYENNE       CLEAR     44  35  70 W8        30.06R
TORRINGTON     CLEAR     40  35  83 CALM      29.99R
PINE BLUFFS    FAIR      37  36  93 SW3       30.05R

$$



USA.gov is the U.S. government's official web portal to all federal, state and local government web resources and services.